Location: Champs
(48.8539°N, 2.6040°E)
Time: 22:42:26
(UTC+00:00)

Cosmos 1953 - Pass Details

Date: 02 June 2022
Orbit: 533 x 555 km, 82.5° (Epoch: 01 July)

Event Time Altitude Azimuth Distance (km) Brightness Sun altitude
Rises 00:38:26 0° 335° (NNW) 2,718 6.7 -18.1°
Reaches altitude 10° 00:41:10 10° 316° (NW) 1,815 5.4 -18.0°
Maximum altitude 00:43:49 18° 274° (W) 1,391 4.3 -17.9°
Enters shadow 00:44:40 16° 258° (WSW) 1,436 4.2 -17.8°
